{"data":{"norad_id":59393,"epoch":"2026-05-25T00:13:33.780864Z","epoch_age_seconds":74217,"freshness":"FRESH","line1":"1 59393U 24062V   26145.00941876 -.00000405  00000+0 -86868-6 0  9998","line2":"2 59393  53.1619 247.6830 0000876  89.7130 270.3973 15.34393480121549","mean_motion":15.3439348,"eccentricity":8.76e-5,"inclination_deg":53.1619,"raan_deg":247.683,"arg_perigee_deg":89.713,"mean_anomaly_deg":270.3973,"bstar":-8.6868e-7,"rev_number":12154,"period_min":93.848156862606,"perigee_km":462.12335978712,"apogee_km":463.32187839239,"semimajor_km":6840.8596190898,"source":"CELESTRAK","updated_at":"2026-05-25T13:38:18.937820Z"}}